Tracking 18673 objects as of 27-June-2017
HD Live streaming from Space Station
objects crossing your sky now

RADIO 6

Track RADIO 6 now!
10-day predictions
RADIO 6 is classified as:


NORAD ID: 13002
Int'l Code: 1981-120F
Perigee: 1,585.4 km
Apogee: 1,668.2 km
Inclination: 83.0 °
Period: 118.6 minutes
Semi major axis: 7997 km
RCS: 0.8643 m2 (medium)
Launch date: December 17, 1981
Source: Commonwealth of Independent States (former USSR) (CIS)
Launch site: PLESETSK MISSILE AND SPACE COMPLEX (PKMTR)
Uplink (MHz):
Downlink (MHz):
Beacon (MHz):
Mode:
Call sign:
Status:

Your satellite tracking list
Your tracking list is empty





NASA's NSSDC Master Catalog

Two Line Element Set (TLE):
1 13002U 81120F   17177.83513066 +.00000005 +00000-0 -53612-4 0  9990
2 13002 082.9606 310.6892 0051756 047.5167 105.7127 12.13791106573843
Source of the keplerian elements: AFSPC